Flag for Brazil Weather past 2 weeks in Fortaleza, Ceará, Brazil

Now
86 °F

Scattered clouds.


Feels Like: 87 °F
Forecast: 78 / 87 °F
Wind: 17 mph from East

Location: Fortaleza Aeropor-To

Current Time: Dec 18, 2014 at 2:44:25 PM

Latest Report: Dec 18, 2014 at 2:00 PM


Visibility: N/A

Pressure: 29.86 "Hg

Humidity: 49%

Dew point: 64 °F

Location of FortalezaLocation

Historic Weather in Fortaleza — Graph

°F

Fortaleza temperature yesterday

Maximum temperature yesterday: 86 °F (at 12:00 PM)
Minimum temperature yesterday: 79 °F (at 12:00 AM)
Average temperature yesterday: 81 °F

Past Weeks' High & Low Weather Summary

 TemperatureHumidityPressure
High88 °F (Dec 7, 12:00 PM)89% (Dec 4, 7:00 AM)29.95 "Hg (Dec 4, 7:00 AM)
Low75 °F (Dec 4, 7:00 AM)46% (Dec 18, 1:00 PM)29.74 "Hg (Dec 13, 2:00 AM)
Average81 °F67%29.87 "Hg
* Reported Dec 3 1:00 PM — Dec 18 1:00 PM, Fortaleza, Weather by CustomWeather, © 2014

Note: Actual official high and low records may vary slightly from our data, if they occured in-between our weather recording intervals... More about our weather records

Advertising

Fortaleza weather history for previous 24 hours

 ConditionsComfort  
Time TempWeatherWind HumidityBarometerVisibility
1:00 PM
Dec 18
86 °FPassing clouds.17 mph46%29.86 "HgN/A
12:00 PM84 °FScattered clouds.17 mph51%29.89 "HgN/A
11:00 AM84 °FScattered clouds.15 mph55%29.92 "HgN/A
10:00 AM84 °FPartly sunny.17 mph58%29.95 "HgN/A
9:00 AM82 °FPartly sunny.16 mph62%29.92 "HgN/A
8:00 AM82 °FPartly sunny.15 mph62%29.92 "HgN/A
7:00 AM81 °FScattered clouds.8 mph66%29.89 "HgN/A
6:00 AM77 °FBroken clouds.6 mph74%29.86 "HgN/A
5:00 AM77 °FPassing clouds.5 mph74%29.86 "HgN/A
4:00 AM77 °FPassing clouds.8 mph79%29.83 "HgN/A
3:00 AM77 °FPassing clouds.6 mph79%29.83 "HgN/A
2:00 AM79 °FPassing clouds.7 mph70%29.83 "HgN/A
1:00 AM79 °FPassing clouds.9 mph70%29.83 "HgN/A
12:00 AM79 °FPassing clouds.9 mph70%29.86 "HgN/A
11:00 PM
Dec 17
79 °FPassing clouds.8 mph74%29.89 "HgN/A
10:00 PM79 °FPassing clouds.10 mph74%29.89 "HgN/A
9:00 PM79 °FPassing clouds.12 mph74%29.89 "HgN/A
8:00 PM79 °FPassing clouds.10 mph74%29.89 "HgN/A
7:00 PM81 °FClear.9 mph70%29.86 "Hg10 mi
6:00 PM81 °FPassing clouds.10 mph66%29.86 "HgN/A
5:00 PM82 °FScattered clouds.12 mph62%29.86 "HgN/A
4:00 PM82 °FPartly sunny.13 mph62%29.83 "HgN/A
3:00 PM84 °FPassing clouds.17 mph58%29.83 "HgN/A
2:00 PM84 °FPassing clouds.14 mph58%29.83 "HgN/A
Weather by CustomWeather, © 2014

See weather overviewHow to use our weather pages